Geneva, Switzerland

9:48 AM CET on January 21, 2018 (GMT +0100)
Cointrin

Weather History for LSGG - July, 2013

Change the Weather History Date:

Wednesday, July 24, 2013

  Actual Average Record
Temperature  
Mean Temperature 74 °F -  
Max Temperature 85 °F 75 °F 91 °F (2006)
Min Temperature 63 °F 52 °F 50 °F (2011)
Cooling Degree Days 9    
Growing Degree Days 24 (Base 50)    
Moisture  
Dew Point 62 °F    
Average Humidity 69    
Maximum Humidity 100    
Minimum Humidity 30    
Precipitation  
Precipitation 0.51 in 0.10 in - ()
Sea Level Pressure  
Sea Level Pressure 30.04 in    
Wind  
Wind Speed 6 mph ()    
Max Wind Speed 22 mph    
Max Gust Speed 34 mph    
Visibility 6.2 miles    
Events Fog , Rain , Thunderstorm    
Averages and records for this station are not official NWS values.
T = Trace of Precipitation, MM = Missing Value Source: Averaged Metar Reports

Daily Weather History Graph

Daily Weather History Graph

Search for Another Location

Airport or City:

Trip Planner

Search our weather history database for the weather conditions in past years. The results will help you decide how hot, cold, wet, or windy it might be!

Date:

Astronomy

Jul. 24, 2013 Rise Set
Actual Time 6:07 AM CEST 9:15 PM CEST
Civil Twilight 5:31 AM CEST 9:51 PM CEST
Nautical Twilight 4:45 AM CEST 10:37 PM CEST
Astronomical Twilight 3:48 AM CEST 11:34 PM CEST
Moon 9:58 PM CEST (7/24) 8:19 AM CEST (7/24)
Length of Visible Light 16h 19m
Length of Day
15h 07m
Waning Gibbous, 96% of the Moon is Illuminated
Jul 24
Waning Gibbous
Jul 29
Last Quarter
Aug 6
New
Aug 14
First Quarter
Aug 21
Full

Hourly Weather History & Observations

Time (CEST) Temp. Heat Index Dew Point Humidity Pressure Visibility Wind Dir Wind Speed Gust Speed Precip Events Conditions
12:20 AM 64.4 °F - 62.6 °F 94% 30.06 in 0.9 mi West 21.9 mph 34.5 mph N/A Rain , Thunderstorm Heavy Thunderstorms and Rain
12:50 AM 64.4 °F - 64.4 °F 100% 30.06 in 5.6 mi West 5.8 mph - N/A Rain , Thunderstorm Light Thunderstorms and Rain
1:00 AM 66 °F - 63 °F 86% 30.06 in - South 10.4 mph - -  
1:20 AM 64.4 °F - 64.4 °F 100% 30.09 in 6.2 mi SSW 6.9 mph - N/A Rain , Thunderstorm Light Rain Showers
1:50 AM 64.4 °F - 64.4 °F 100% 30.09 in 6.2 mi SW 12.7 mph - N/A Rain Light Rain Showers
2:00 AM 65 °F - 63 °F 91% 30.07 in 7 mi WSW 9.2 mph - - Rain Light Rain
2:20 AM 64.4 °F - 64.4 °F 100% 30.09 in 5.0 mi SW 8.1 mph - N/A Rain Rain Showers
2:50 AM 64.4 °F - 64.4 °F 100% 30.06 in 6.2 mi ENE 4.6 mph - N/A Rain Light Rain Showers
3:00 AM 65 °F - 63 °F 92% 30.04 in - North 2.3 mph - -  
3:50 AM 64.4 °F - 64.4 °F 100% 30.04 in 6.2 mi Variable 3.5 mph - N/A   Mostly Cloudy
4:00 AM 65 °F - 63 °F 92% 30.02 in - WNW 3.5 mph - -  
4:20 AM 64.4 °F - 64.4 °F 100% 30.06 in 6.2 mi West 3.5 mph - N/A   Scattered Clouds
4:50 AM 64.4 °F - 62.6 °F 94% 30.04 in 6.2 mi Variable 3.5 mph - N/A   Scattered Clouds
5:20 AM 62.6 °F - 62.6 °F 100% 30.04 in 6.2 mi SE 2.3 mph - N/A Fog Shallow Fog
5:50 AM 62.6 °F - 62.6 °F 100% 30.04 in 4.3 mi Variable 1.2 mph - N/A Fog Patches of Fog
6:00 AM 63 °F - 62 °F 95% 30.02 in - WNW 2.3 mph - -  
6:20 AM 62.6 °F - 62.6 °F 100% 30.04 in 6.2 mi West 3.5 mph - N/A Fog Shallow Fog
6:50 AM 62.6 °F - 62.6 °F 100% 30.04 in 6.2 mi West 5.8 mph - N/A Fog Patches of Fog
7:00 AM 65 °F - 62 °F 88% 30.02 in - West 3.5 mph - -  
7:20 AM 64.4 °F - 62.6 °F 94% 30.06 in 6.2 mi Variable 2.3 mph - N/A Fog Patches of Fog
7:50 AM 64.4 °F - 62.6 °F 94% 30.06 in 6.2 mi Variable 2.3 mph - N/A   Mostly Cloudy
8:00 AM 65 °F - 62 °F 87% 30.05 in 14 mi WNW 2.3 mph - -   Partly Cloudy
8:20 AM 66.2 °F - 64.4 °F 94% 30.06 in 6.2 mi Variable 1.2 mph - N/A   Mostly Cloudy
8:50 AM 66.2 °F - 62.6 °F 88% 30.06 in 6.2 mi Variable 1.2 mph - N/A   Mostly Cloudy
9:00 AM 66 °F - 62 °F 83% 30.05 in - SSW 1.2 mph - -  
9:20 AM 69.8 °F - 64.4 °F 83% 30.09 in 6.2 mi Variable 1.2 mph - N/A   Mostly Cloudy
9:50 AM 69.8 °F - 64.4 °F 83% 30.09 in 6.2 mi Variable 1.2 mph - N/A   Scattered Clouds
10:00 AM 69 °F - 62 °F 72% 30.04 in - NNW 1.2 mph - -  
10:20 AM 75.2 °F - 64.4 °F 69% 30.09 in 6.2 mi Variable 1.2 mph - N/A   Partly Cloudy
10:50 AM 73.4 °F - 62.6 °F 69% 30.09 in 6.2 mi Variable 2.3 mph - N/A   Partly Cloudy
11:20 AM 75.2 °F - 62.6 °F 65% 30.09 in 6.2 mi Variable 2.3 mph - N/A   Partly Cloudy
11:50 AM 75.2 °F - 60.8 °F 61% 30.09 in 6.2 mi WSW 4.6 mph - N/A   Partly Cloudy
12:00 PM 76 °F - 62 °F 52% 30.03 in - South 4.6 mph - -  
12:20 PM 77.0 °F - 62.6 °F 61% 30.06 in 6.2 mi Variable 3.5 mph - N/A   Partly Cloudy
12:50 PM 78.8 °F - 62.6 °F 57% 30.06 in 6.2 mi SSW 4.6 mph - N/A   Partly Cloudy
1:00 PM 78 °F - 62 °F 47% 30.01 in - SSW 5.8 mph - -  
1:20 PM 80.6 °F 82.3 °F 64.4 °F 58% 30.06 in 6.2 mi South 5.8 mph - N/A   Partly Cloudy
1:50 PM 82.4 °F 83.4 °F 62.6 °F 51% 30.06 in 6.2 mi SW 6.9 mph - N/A   Partly Cloudy
2:00 PM 81 °F - 60 °F 39% 29.98 in 31 mi WSW 5.8 mph - -   Scattered Clouds
2:20 PM 82.4 °F 83.4 °F 62.6 °F 51% 30.04 in 6.2 mi WSW 5.8 mph - N/A   Partly Cloudy
2:50 PM 84.2 °F 84.4 °F 60.8 °F 45% 30.04 in 6.2 mi SSW 4.6 mph - N/A   Partly Cloudy
3:00 PM 83 °F - 56 °F 30% 29.97 in - SW 6.9 mph - -  
3:20 PM 84.2 °F 83.8 °F 59.0 °F 42% 30.04 in 6.2 mi SW 8.1 mph - N/A   Partly Cloudy
3:50 PM 84.2 °F 83.8 °F 59.0 °F 42% 30.04 in 6.2 mi WSW 5.8 mph - N/A   Mostly Cloudy
4:00 PM 84 °F - 58 °F 31% 29.96 in - SSW 6.9 mph - -  
4:20 PM 86.0 °F 85.4 °F 59.0 °F 40% 30.04 in 6.2 mi SSW 5.8 mph - N/A   Mostly Cloudy
4:50 PM 86.0 °F 86.1 °F 60.8 °F 43% 30.04 in 6.2 mi SSW 9.2 mph - N/A   Mostly Cloudy
5:20 PM 86.0 °F 86.6 °F 62.6 °F 45% 30.01 in 6.2 mi WSW 8.1 mph - N/A   Mostly Cloudy
5:50 PM 84.2 °F 84.4 °F 60.8 °F 45% 30.01 in 6.2 mi WSW 9.2 mph - N/A   Scattered Clouds
6:00 PM 85 °F - 59 °F 31% 29.94 in - SW 10.4 mph - -  
6:20 PM 86.0 °F 86.1 °F 60.8 °F 43% 30.01 in 6.2 mi WSW 6.9 mph - N/A   Partly Cloudy
6:50 PM 84.2 °F 84.4 °F 60.8 °F 45% 30.01 in 6.2 mi SW 9.2 mph - N/A   Partly Cloudy
7:00 PM 85 °F - 59 °F 31% 29.92 in - SW 8.1 mph - -  
7:20 PM 84.2 °F 84.4 °F 60.8 °F 45% 30.01 in 6.2 mi WSW 5.8 mph - N/A   Partly Cloudy
7:50 PM 84.2 °F 84.4 °F 60.8 °F 45% 30.01 in 6.2 mi SW 8.1 mph - N/A   Partly Cloudy
8:00 PM 82 °F - 59 °F 36% 29.94 in 25 mi WSW 5.8 mph - -   Scattered Clouds
8:20 PM 84.2 °F 84.4 °F 60.8 °F 45% 30.01 in 6.2 mi SW 6.9 mph - N/A   Partly Cloudy
8:50 PM 78.8 °F - 62.6 °F 57% 30.01 in 6.2 mi WSW 5.8 mph - N/A   Partly Cloudy
9:00 PM 78 °F - 62 °F 47% 29.96 in - West 4.6 mph - -  
9:20 PM 77.0 °F - 62.6 °F 61% 30.04 in - Variable 2.3 mph - N/A   Clear
9:50 PM 77.0 °F - 62.6 °F 61% 30.04 in - Calm Calm - N/A   Clear
10:00 PM 74 °F - 64 °F 63% 29.99 in - North 1.2 mph - -  
10:20 PM 75.2 °F - 64.4 °F 69% 30.04 in - Calm Calm - N/A   Clear
10:50 PM 73.4 °F - 64.4 °F 73% 30.06 in - Calm Calm - N/A   Clear
11:20 PM 73.4 °F - 64.4 °F 73% 30.06 in - Variable 2.3 mph - N/A   Clear
11:50 PM 73.4 °F - 64.4 °F 73% 30.06 in - NW 3.5 mph - N/A   Clear